When you browse on this site, cookies collect data to enhance your experience and personalize the content and advertising you see.
Visit our Privacy Policy to learn more. By continuing to use the site, you agree to this use of cookies and data.
  • In Lithuania
  • List of Countries
  • For 7 days
  • Water Temperature
  • Weather Map
  • Weather Widgets
  • user-avatar
    Login

    Hourly Weather Perth

    Today, 15 October, Tuesday

    Time Temperature Precipitation Wind Pressure Humidity
    00:00 +12°C° 0 mm 4 mps 764 mmHg 68%
    01:00 +11°C° 0 mm 4 mps 764 mmHg 69%
    02:00 +11°C° 0 mm 3 mps 764 mmHg 67%
    03:00 +10°C° 0 mm 3 mps 764 mmHg 69%
    04:00 +10°C° 0 mm 3 mps 765 mmHg 71%
    05:00 +9°C° 0 mm 2 mps 765 mmHg 73%
    06:00 +10°C° 0 mm 3 mps 765 mmHg 68%
    07:00 +12°C° 0 mm 3 mps 766 mmHg 62%
    08:00 +13°C° 0 mm 3 mps 766 mmHg 57%
    09:00 +16°C° 0 mm 3 mps 766 mmHg 52%
    10:00 +17°C° 0 mm 3 mps 766 mmHg 48%
    11:00 +18°C° 0 mm 4 mps 766 mmHg 43%
    12:00 +17°C° 0 mm 5 mps 765 mmHg 44%
    13:00 +19°C° 0 mm 5 mps 765 mmHg 45%
    14:00 +19°C° 0 mm 4 mps 764 mmHg 46%
    15:00 +17°C° 0 mm 5 mps 764 mmHg 49%
    16:00 +17°C° 0 mm 5 mps 764 mmHg 52%
    17:00 +16°C° 0 mm 6 mps 764 mmHg 55%
    18:00 +15°C° 0 mm 5 mps 765 mmHg 59%
    19:00 +14°C° 0 mm 5 mps 766 mmHg 64%
    20:00 +13°C° 0 mm 5 mps 766 mmHg 68%
    21:00 +13°C° 0 mm 4 mps 766 mmHg 72%
    22:00 +12°C° 0 mm 4 mps 767 mmHg 75%
    23:00 +12°C° 0 mm 3 mps 767 mmHg 78%

    Tomorrow, 16 October, Wednesday

    Time Temperature Precipitation Wind Pressure Humidity
    00:00 +11°C° 0 mm 3 mps 767 mmHg 78%
    01:00 +11°C° 0 mm 3 mps 767 mmHg 78%
    02:00 +10°C° 0 mm 3 mps 766 mmHg 77%
    03:00 +10°C° 0 mm 2 mps 766 mmHg 78%
    04:00 +10°C° 0 mm 2 mps 767 mmHg 78%
    05:00 +9°C° 0 mm 2 mps 767 mmHg 79%
    06:00 +12°C° 0 mm 2 mps 767 mmHg 72%
    07:00 +13°C° 0 mm 2 mps 767 mmHg 65%
    08:00 +14°C° 0 mm 3 mps 767 mmHg 58%
    09:00 +17°C° 0 mm 3 mps 767 mmHg 52%
    10:00 +18°C° 0 mm 2 mps 767 mmHg 46%
    11:00 +20°C° 0 mm 2 mps 767 mmHg 39%
    12:00 +20°C° 0 mm 3 mps 766 mmHg 40%
    13:00 +21°C° 0 mm 4 mps 766 mmHg 41%
    14:00 +21°C° 0 mm 4 mps 765 mmHg 42%
    15:00 +20°C° 0 mm 5 mps 765 mmHg 45%
    16:00 +19°C° 0 mm 5 mps 765 mmHg 49%
    17:00 +17°C° 0 mm 6 mps 765 mmHg 52%
    18:00 +16°C° 0 mm 5 mps 765 mmHg 57%
    19:00 +15°C° 0 mm 5 mps 766 mmHg 62%
    20:00 +14°C° 0 mm 4 mps 766 mmHg 67%
    21:00 +13°C° 0 mm 4 mps 766 mmHg 70%
    22:00 +13°C° 0 mm 4 mps 766 mmHg 72%
    23:00 +12°C° 0 mm 3 mps 766 mmHg 75%

    Day after tomorrow, 17 October, Thursday

    Time Temperature Precipitation Wind Pressure Humidity
    00:00 +12°C° 0 mm 3 mps 765 mmHg 76%
    01:00 +12°C° 0 mm 2 mps 765 mmHg 77%
    02:00 +12°C° 0 mm 2 mps 764 mmHg 78%
    03:00 +10°C° 0 mm 2 mps 765 mmHg 79%
    04:00 +10°C° 0 mm 2 mps 765 mmHg 79%
    05:00 +10°C° 0 mm 2 mps 765 mmHg 80%
    06:00 +12°C° 0 mm 2 mps 765 mmHg 73%
    07:00 +13°C° 0 mm 2 mps 765 mmHg 67%
    08:00 +15°C° 0 mm 2 mps 765 mmHg 61%
    09:00 +17°C° 0 mm 2 mps 765 mmHg 55%
    10:00 +19°C° 0 mm 2 mps 765 mmHg 50%
    11:00 +21°C° 0 mm 1 mps 765 mmHg 44%
    12:00 +21°C° 0 mm 3 mps 764 mmHg 45%
    13:00 +21°C° 0 mm 4 mps 764 mmHg 46%
    14:00 +21°C° 0 mm 5 mps 763 mmHg 46%
    15:00 +20°C° 0 mm 5 mps 763 mmHg 51%
    16:00 +19°C° 0 mm 5 mps 763 mmHg 56%
    17:00 +17°C° 0 mm 6 mps 763 mmHg 60%
    18:00 +17°C° 0 mm 5 mps 763 mmHg 66%
    19:00 +16°C° 0 mm 5 mps 764 mmHg 72%
    20:00 +15°C° 0 mm 4 mps 764 mmHg 77%
    21:00 +14°C° 0 mm 4 mps 764 mmHg 80%
    22:00 +14°C° 0 mm 4 mps 764 mmHg 82%
    23:00 +13°C° 0 mm 4 mps 764 mmHg 85%

    18 October, Friday

    Time Temperature Precipitation Wind Pressure Humidity
    00:00 +13°C° 0 mm 4 mps 763 mmHg 84%
    01:00 +13°C° 0 mm 4 mps 763 mmHg 84%
    02:00 +13°C° 0 mm 3 mps 763 mmHg 83%
    03:00 +12°C° 0 mm 3 mps 763 mmHg 83%
    04:00 +12°C° 0 mm 3 mps 763 mmHg 83%
    05:00 +12°C° 0 mm 3 mps 763 mmHg 84%
    06:00 +13°C° 0 mm 4 mps 764 mmHg 80%
    07:00 +13°C° 0 mm 4 mps 764 mmHg 76%
    08:00 +14°C° 0 mm 5 mps 764 mmHg 72%
    09:00 +17°C° 0 mm 4 mps 764 mmHg 65%
    10:00 +19°C° 0 mm 4 mps 764 mmHg 58%
    11:00 +21°C° 0 mm 3 mps 764 mmHg 51%
    12:00 +22°C° 0 mm 4 mps 763 mmHg 48%
    13:00 +23°C° 0 mm 4 mps 762 mmHg 44%
    14:00 +25°C° 0 mm 4 mps 761 mmHg 40%
    15:00 +25°C° 0 mm 4 mps 761 mmHg 43%
    16:00 +23°C° 0 mm 4 mps 761 mmHg 45%
    17:00 +23°C° 0 mm 5 mps 761 mmHg 48%
    18:00 +22°C° 0 mm 5 mps 761 mmHg 50%
    19:00 +20°C° 0 mm 5 mps 762 mmHg 53%
    20:00 +19°C° 0 mm 5 mps 762 mmHg 56%
    21:00 +19°C° 0 mm 5 mps 762 mmHg 54%
    22:00 +17°C° 0 mm 5 mps 762 mmHg 52%
    23:00 +17°C° 0 mm 6 mps 762 mmHg 50%

    19 October, Saturday

    Time Temperature Precipitation Wind Pressure Humidity
    00:00 +16°C° 0 mm 6 mps 762 mmHg 53%
    01:00 +15°C° 0 mm 7 mps 762 mmHg 55%
    02:00 +14°C° 0 mm 7 mps 761 mmHg 58%
    03:00 +14°C° 0 mm 7 mps 762 mmHg 59%
    04:00 +14°C° 0 mm 7 mps 762 mmHg 60%
    05:00 +14°C° 0 mm 7 mps 762 mmHg 61%
    06:00 +15°C° 0 mm 7 mps 762 mmHg 58%
    07:00 +16°C° 0 mm 6 mps 762 mmHg 56%
    08:00 +17°C° 0 mm 6 mps 762 mmHg 53%
    09:00 +20°C° 0 mm 5 mps 762 mmHg 49%
    10:00 +23°C° 0 mm 5 mps 761 mmHg 45%
    11:00 +26°C° 0 mm 4 mps 761 mmHg 40%
    12:00 +28°C° 0 mm 4 mps 760 mmHg 38%
    13:00 +29°C° 0 mm 4 mps 760 mmHg 35%
    14:00 +30°C° 0 mm 3 mps 759 mmHg 33%
    15:00 +30°C° 0 mm 3 mps 758 mmHg 34%
    16:00 +30°C° 0 mm 3 mps 758 mmHg 36%
    17:00 +29°C° 0 mm 3 mps 758 mmHg 37%
    18:00 +28°C° 0 mm 4 mps 758 mmHg 40%
    19:00 +26°C° 0 mm 4 mps 758 mmHg 42%
    20:00 +25°C° 0 mm 4 mps 758 mmHg 44%
    21:00 +25°C° 0 mm 4 mps 758 mmHg 42%
    22:00 +25°C° 0 mm 5 mps 758 mmHg 40%
    23:00 +23°C° 0 mm 5 mps 759 mmHg 38%

    20 October, Sunday

    Time Temperature Precipitation Wind Pressure Humidity
    00:00 +23°C° 0 mm 5 mps 758 mmHg 39%
    01:00 +22°C° 0 mm 5 mps 758 mmHg 40%
    02:00 +22°C° 0 mm 5 mps 758 mmHg 41%
    03:00 +21°C° 0 mm 4 mps 758 mmHg 42%
    04:00 +21°C° 0 mm 3 mps 758 mmHg 43%
    05:00 +20°C° 0 mm 2 mps 757 mmHg 45%
    06:00 +22°C° 0 mm 1 mps 758 mmHg 44%
    07:00 +23°C° 0 mm 1 mps 758 mmHg 43%
    08:00 +24°C° 0 mm 1 mps 758 mmHg 42%
    09:00 +25°C° 0 mm 2 mps 758 mmHg 40%
    10:00 +27°C° 0 mm 2 mps 758 mmHg 38%
    11:00 +28°C° 0 mm 3 mps 758 mmHg 36%
    12:00 +28°C° 0 mm 4 mps 758 mmHg 39%
    13:00 +28°C° 0 mm 5 mps 758 mmHg 42%
    14:00 +28°C° 0 mm 5 mps 758 mmHg 45%
    15:00 +26°C° 0 mm 5 mps 758 mmHg 51%
    16:00 +25°C° 0 mm 5 mps 758 mmHg 57%
    17:00 +23°C° 0 mm 5 mps 759 mmHg 64%
    18:00 +21°C° 0 mm 4 mps 759 mmHg 72%
    19:00 +20°C° 0 mm 4 mps 760 mmHg 80%
    20:00 +19°C° 0 mm 3 mps 760 mmHg 87%
    21:00 +18°C° 0 mm 3 mps 760 mmHg 87%
    22:00 +18°C° 0 mm 3 mps 761 mmHg 86%
    23:00 +18°C° 0 mm 3 mps 761 mmHg 86%
    Show more